Location: North Evanston
(42.0634°N, 87.6976°W)
Time: 00:48:36
(UTC+00:00)

Altair - All Passes

Search period start: 14 May 2026 00:00
Search period end: 24 May 2026 00:00
Orbit: 1501 x 1682 km, 47.2° (Epoch: 13 May)

Date Brightness Start Highest point End Pass type
(mag) Time Alt. Az. Time Alt. Az. Time Alt. Az.
14 May - 09:09:39 10° S 09:17:36 29° SE 09:25:44 10° ENE visible
14 May - 11:11:26 10° SW 11:21:22 78° SSE 11:31:32 10° ENE daylight
14 May - 13:16:38 10° W 13:26:42 68° N 13:36:52 10° ENE daylight
14 May - 15:22:18 10° WNW 15:32:32 76° NNE 15:42:39 10° ESE daylight
14 May - 17:27:29 10° WNW 17:37:20 57° SW 17:46:58 10° SE daylight
14 May - 19:34:50 10° W 19:40:29 17° WSW 19:46:03 10° SSW daylight
15 May - 08:44:53 10° S 08:52:29 26° SE 09:00:14 10° ENE visible
15 May - 10:46:16 10° SW 10:56:07 74° SSE 11:06:15 10° ENE daylight
15 May - 12:51:18 10° W 13:01:21 69° N 13:11:31 10° ENE daylight
15 May - 14:56:59 10° WNW 15:07:12 74° NNE 15:17:20 10° E daylight
15 May - 17:02:10 10° WNW 17:12:07 61° SW 17:21:51 10° SE daylight
15 May - 19:09:03 10° W 19:15:23 19° SW 19:21:37 10° SSW daylight
16 May - 08:20:10 10° S 08:27:22 24° SE 08:34:43 10° E visible
16 May - 10:21:05 10° SW 10:30:52 70° SE 10:40:56 10° ENE daylight
16 May - 12:25:58 10° W 12:36:00 70° N 12:46:12 10° ENE daylight
16 May - 14:31:41 10° WNW 14:41:51 72° NNE 14:52:00 10° E daylight
16 May - 16:36:51 10° WNW 16:46:53 65° SW 16:56:43 10° SE daylight
16 May - 18:43:23 10° W 18:50:16 21° SW 18:57:04 10° S daylight
17 May - 07:55:32 10° S 08:02:15 21° SE 08:09:06 10° E visible
17 May - 09:55:57 10° SW 10:05:38 66° SE 10:15:37 10° ENE visible
17 May - 12:00:38 10° W 12:10:39 71° NNW 12:20:52 10° ENE daylight
17 May - 14:06:22 10° WNW 14:16:31 70° NNE 14:26:39 10° E daylight
17 May - 16:11:34 10° WNW 16:21:38 69° SW 16:31:34 10° SE daylight
17 May - 18:17:47 10° W 18:25:10 23° SW 18:32:26 10° S daylight
18 May - 07:30:59 10° SSE 07:37:09 19° SE 07:43:27 10° E visible
18 May - 09:30:49 10° SW 09:40:24 62° SE 09:50:18 10° ENE visible
18 May - 11:35:19 10° W 11:45:18 73° NNW 11:55:32 10° ENE daylight
18 May - 13:41:03 10° WNW 13:51:10 69° N 14:01:18 10° E daylight
18 May - 15:46:16 10° WNW 15:56:23 73° SSW 16:06:23 10° SE daylight
18 May - 17:52:15 10° WNW 18:00:02 26° SW 18:07:43 10° S daylight
19 May - 07:06:33 10° SSE 07:12:04 17° ESE 07:17:41 10° E visible
19 May - 09:05:43 10° SW 09:15:11 58° SE 09:24:58 10° ENE visible
19 May - 11:10:01 10° WSW 11:19:58 75° NNW 11:30:12 10° ENE daylight
19 May - 13:15:43 10° WNW 13:25:48 68° N 13:35:58 10° E daylight
19 May - 15:20:58 10° WNW 15:31:08 77° SSW 15:41:12 10° SE daylight
19 May - 17:26:46 10° WNW 17:34:54 29° SW 17:42:56 10° S daylight
20 May - 06:42:16 10° SSE 06:46:59 15° ESE 06:51:46 10° E visible
20 May - 08:40:39 10° SSW 08:49:59 54° SE 08:59:38 10° ENE visible
20 May - 10:44:43 10° WSW 10:54:39 77° NNW 11:04:52 10° ENE daylight
20 May - 12:50:24 10° WNW 13:00:27 67° N 13:10:36 10° E daylight
20 May - 14:55:40 10° WNW 15:05:51 81° SSW 15:15:58 10° SE daylight
20 May - 17:01:18 10° WNW 17:09:45 31° SW 17:18:07 10° S daylight
21 May - 06:18:16 10° SE 06:21:55 13° ESE 06:25:37 10° E visible
21 May - 08:15:37 10° SSW 08:24:47 50° SE 08:34:18 10° ENE visible
21 May - 10:19:25 10° WSW 10:29:20 80° NNW 10:39:33 10° ENE daylight
21 May - 12:25:05 10° WNW 12:35:06 66° N 12:45:14 10° E daylight
21 May - 14:30:23 10° WNW 14:40:34 84° SSW 14:50:44 10° ESE daylight
21 May - 16:35:52 10° WNW 16:44:36 34° SW 16:53:15 10° SSE daylight
22 May - 05:54:54 10° SE 05:56:52 11° ESE 05:58:50 10° ESE visible
22 May - 07:50:36 10° SSW 07:59:37 46° SE 08:08:57 10° ENE visible
22 May - 09:54:09 10° WSW 10:04:01 83° NNW 10:14:14 10° ENE daylight
22 May - 11:59:45 10° W 12:09:44 66° N 12:19:53 10° E daylight
22 May - 14:05:05 10° WNW 14:15:17 88° SSW 14:25:28 10° ESE daylight
22 May - 16:10:28 10° WNW 16:19:26 37° SW 16:28:20 10° SSE daylight
23 May - 07:25:37 10° SSW 07:34:26 43° SE 07:43:35 10° ENE visible
23 May - 09:28:53 10° WSW 09:38:43 85° NNW 09:48:55 10° ENE visible
23 May - 11:34:26 10° W 11:44:22 66° N 11:54:31 10° E daylight
23 May - 13:39:48 10° WNW 13:49:59 89° NNE 14:00:12 10° ESE daylight
23 May - 15:45:06 10° WNW 15:54:15 40° SW 16:03:22 10° SSE daylight
